Flag for U.S.A. Weather past 2 weeks in Columbus, Georgia, U.S.A.

Now
53 °F

Clear.


Feels Like: 53 °F
Forecast: 51 / 73 °F
Wind: No wind

Location: Columbus Metropolitan Airport

Current Time: Apr 21, 2015 at 7:02:26 AM

Latest Report: Apr 21, 2015 at 5:51 AM


Visibility: 10 mi

Pressure: 29.93 "Hg

Humidity: 83%

Dew point: 48 °F

Location of ColumbusLocation

Historic Weather in Columbus — Graph

°F

Columbus temperature yesterday

Maximum temperature yesterday: 76 °F (at 4:51 PM)
Minimum temperature yesterday: 64 °F (at 6:51 AM)
Average temperature yesterday: 69 °F

Past Weeks' High & Low Weather Summary

 TemperatureHumidityPressure
High88 °F (Apr 8, 4:51 PM)100% (Apr 7, 4:51 AM)30.22 "Hg (Apr 7, 4:51 AM)
Low53 °F (Apr 21, 5:51 AM)18% (Apr 11, 5:51 PM)29.69 "Hg (Apr 19, 3:51 PM)
Average69 °F80%30.03 "Hg
* Reported Apr 6 5:51 AM — Apr 21 5:51 AM, Columbus, Weather by CustomWeather, © 2015

Note: Actual official high and low records may vary slightly from our data, if they occured in-between our weather recording intervals... More about our weather records

Advertising

Columbus weather history for previous 24 hours

 ConditionsComfort  
Time TempWeatherWind HumidityBarometerVisibility
5:51 AM
Tue, Apr 21
53 °FClear.No wind83%29.93 "Hg10 mi
4:51 AM54 °FClear.No wind80%29.92 "Hg10 mi
3:51 AM55 °FClear.3 mph77%29.90 "Hg10 mi
2:51 AM59 °FClear.7 mph67%29.90 "Hg10 mi
1:51 AM61 °FClear.8 mph65%29.89 "Hg10 mi
12:51 AM62 °FClear.8 mph67%29.89 "Hg10 mi
11:51 PM
Mon, Apr 20
64 °FClear.7 mph63%29.87 "Hg10 mi
10:51 PM67 °FClear.10 mph59%29.85 "Hg10 mi
9:51 PM69 °FClear.7 mph61%29.82 "Hg10 mi
8:51 PM72 °FMostly cloudy.7 mph53%29.78 "Hg10 mi
7:51 PM74 °FPartly sunny.8 mph50%29.75 "Hg10 mi
6:51 PM76 °FScattered clouds.10 mph48%29.73 "Hg10 mi
5:51 PM75 °FBroken clouds.10 mph64%29.72 "Hg10 mi
4:51 PM76 °FPartly sunny.16 mph64%29.71 "Hg10 mi
3:51 PM75 °FPassing clouds.22 mph66%29.72 "Hg10 mi
2:51 PM71 °FBroken clouds.18 mph76%29.75 "Hg10 mi
1:51 PM73 °FPartly sunny.10 mph76%29.78 "Hg10 mi
12:51 PM71 °FCloudy.9 mph84%29.80 "Hg10 mi
11:51 AM70 °FPartly sunny.8 mph84%29.81 "Hg10 mi
10:51 AM69 °FOvercast.7 mph84%29.79 "Hg10 mi
9:51 AM68 °FPartly sunny.8 mph87%29.79 "Hg10 mi
8:51 AM66 °FPartly sunny.9 mph93%29.79 "Hg10 mi
8:02 AM64 °FPassing clouds.7 mph100%29.78 "Hg10 mi
7:51 AM65 °FPassing clouds.6 mph94%29.77 "Hg10 mi
Weather by CustomWeather, © 2015

See weather overviewHow to use our weather pages